Location: DARK SKY Beskydy - Park tmavé oblohy, www.darkskybeskydy.cz
(49.4926°N, 18.5016°E)
Time: 09:27:41
(UTC+01:00)

A-11 Canister half - All Passes

Search period start: 25 February 2024 00:00
Search period end: 06 March 2024 00:00
Orbit: 1526 x 1682 km, 47.3° (Epoch: 24 February)

Date Brightness Start Highest point End Pass type
(mag) Time Alt. Az. Time Alt. Az. Time Alt. Az.
25 Feb - 01:55:05 10° W 02:04:04 56° SSW 02:13:05 10° SE visible
25 Feb - 04:00:49 10° W 04:07:31 23° SW 04:14:18 10° S visible
25 Feb - 19:21:31 10° SSW 19:29:21 30° SE 19:37:03 10° E visible
25 Feb - 21:23:50 10° WSW 21:33:09 64° SSE 21:42:17 10° E visible
25 Feb - 23:28:26 10° W 23:37:49 79° S 23:47:08 10° E visible
26 Feb - 01:33:21 10° W 01:42:22 57° SSW 01:51:25 10° SE visible
26 Feb - 03:38:58 10° W 03:45:53 24° SW 03:52:50 10° S visible
26 Feb - 18:59:58 10° S 19:07:42 29° SE 19:15:16 10° E visible
26 Feb - 21:02:08 10° SW 21:11:26 62° SSE 21:20:34 10° E visible
26 Feb - 23:06:41 10° W 23:16:06 79° S 23:25:24 10° E visible
27 Feb - 01:11:36 10° W 01:20:41 59° SSW 01:29:44 10° SE visible
27 Feb - 03:17:09 10° W 03:24:14 25° SW 03:31:22 10° S visible
27 Feb - 18:38:26 10° S 18:46:02 27° SE 18:53:29 10° E visible
27 Feb - 20:40:26 10° SW 20:49:44 61° SSE 20:58:50 10° E visible
27 Feb - 22:44:56 10° W 22:54:22 79° S 23:03:41 10° E visible
28 Feb - 00:49:52 10° W 00:58:59 60° SSW 01:08:04 10° SE night (unlit)
28 Feb - 02:55:20 10° W 03:02:35 27° SW 03:09:53 10° S visible
28 Feb - 18:16:56 10° S 18:24:23 26° SE 18:31:40 10° E visible
28 Feb - 20:18:44 10° SW 20:28:01 59° SSE 20:37:07 10° E visible
28 Feb - 22:23:11 10° W 22:32:39 79° S 22:41:57 10° E visible
29 Feb - 00:28:08 10° W 00:37:16 62° SSW 00:46:23 10° SE visible
29 Feb - 02:33:31 10° W 02:40:57 28° SW 02:48:24 10° S visible
29 Feb - 17:55:27 10° S 18:02:44 25° SE 18:09:52 10° E visible
29 Feb - 19:57:01 10° SW 20:06:19 58° SSE 20:15:23 10° E visible
29 Feb - 22:01:26 10° W 22:10:54 79° S 22:20:13 10° E visible
01 Mar - 00:06:23 10° W 00:15:35 63° SSW 00:24:42 10° SE visible
01 Mar - 02:11:43 10° W 02:19:18 29° SW 02:26:53 10° SSE night (unlit)
01 Mar - 17:33:58 10° S 17:41:04 24° SE 17:48:02 10° E daylight
01 Mar - 19:35:20 10° SW 19:44:36 56° SSE 19:53:39 10° E visible
01 Mar - 21:39:41 10° W 21:49:11 79° S 21:58:30 10° E visible
01 Mar - 23:44:38 10° W 23:53:52 65° SSW 00:03:01 10° ESE visible
02 Mar - 01:49:55 10° W 01:57:38 31° SW 02:05:22 10° SSE night (unlit)
02 Mar - 17:12:30 10° S 17:19:25 23° SE 17:26:12 10° E daylight
02 Mar - 19:13:39 10° SW 19:22:54 55° SSE 19:31:56 10° ENE visible
02 Mar - 21:17:56 10° W 21:27:27 79° S 21:36:46 10° E visible
02 Mar - 23:22:53 10° W 23:32:10 66° SSW 23:41:19 10° ESE visible
03 Mar - 01:28:08 10° W 01:35:59 32° SW 01:43:50 10° SSE night (unlit)
03 Mar - 16:51:04 10° S 16:57:47 21° SE 17:04:21 10° E daylight
03 Mar - 18:51:57 10° SW 19:01:12 53° SSE 19:10:12 10° ENE visible
03 Mar - 20:56:11 10° WSW 21:05:43 78° S 21:15:03 10° E visible
03 Mar - 23:01:09 10° W 23:10:27 67° SSW 23:19:38 10° ESE visible
04 Mar - 01:06:21 10° W 01:14:20 33° SW 01:22:18 10° SSE night (unlit)
04 Mar - 16:29:39 10° S 16:36:07 20° SE 16:42:29 10° E daylight
04 Mar - 18:30:16 10° SW 18:39:30 52° SSE 18:48:28 10° ENE visible
04 Mar - 20:34:25 10° WSW 20:44:00 78° S 20:53:19 10° E visible
04 Mar - 22:39:23 10° W 22:48:45 69° SSW 22:57:56 10° ESE visible
05 Mar - 00:44:34 10° W 00:52:40 35° SW 01:00:45 10° SSE visible
05 Mar - 16:08:15 10° S 16:14:29 19° SE 16:20:36 10° E daylight
05 Mar - 18:08:36 10° SW 18:17:48 50° SSE 18:26:45 10° ENE visible
05 Mar - 20:12:40 10° WSW 20:22:15 78° S 20:31:36 10° E visible
05 Mar - 22:17:38 10° W 22:27:01 70° SSW 22:36:14 10° ESE visible
